Regional Weather Roundup
Issued by NWS

Home | Current Version | Previous Version | Graphics & Text | Print | Product List | Glossary On
Versions: 1 2 3 4 5 6 7 8 9 10 11 12 13 14 15 16 17 18 19 20 21 22 23 24 25 26 27 28 29 30 31 32 33 34 35 36 37 38 39 40 41 42 43 44 45 46 47 48 49 50
965
ASUS44 KMEG 291210
RWRTN
TENNESSEE HOURLY STATE WEATHER ROUNDUP
NATIONAL WEATHER SERVICE MEMPHIS TN
700 AM CDT WED MAR 29 2017

TNZ002-004-019-021-049-052-054-088>092-291300-
WEST TENNESSEE

CITY           SKY/WX    TMP DP  RH WIND       PRES   REMARKS
MEMPHIS INTL   PTCLDY    62  55  77 E5        29.91S
NWS MEMPHIS      N/A     60 N/A N/A MISG        N/A
JACKSON        PTCLDY    57  54  89 E8        29.97R
DYERSBURG      CLEAR     57  54  89 E9        29.96S
SOMERVILLE     PTCLDY    59  54  82 VRB5      29.93S
BOLIVAR        PTCLDY    57  54  88 E6        29.95S
PARIS          MOCLDY    52  52 100 E9        30.01R
HUNTINGDON     MOCLDY    55  54  94 E7        29.99R FOG
SAVANNAH       MOCLDY    59  54  82 CALM      29.97F
$$

TNZ008-025-027-028-033-062-065-066-291300-
NORTH MIDDLE TENNESSEE

CITY           SKY/WX    TMP DP  RH WIND       PRES   REMARKS
NASHVILLE      PTCLDY    53  51  93 E6        30.05R
PORTLAND       CLEAR     52  52 100 CALM      30.06R FOG
CLARKSVILLE    CLEAR     51  49  92 E7        30.04R FOG
SMYRNA         CLEAR     46  46 100 CALM      30.06R
COOKEVILLE     CLEAR     46  46 100 NE6       30.04S FOG
GALLATIN       CLEAR     54  52  94 CALM      30.08R FOG
CROSSVILLE     FOG       48  48 100 NE6       30.08R VSB<1/4
$$

TNZ061-075-076-078-094-096-097-291300-
SOUTH MIDDLE TENNESSEE

CITY           SKY/WX    TMP DP  RH WIND       PRES   REMARKS
FAYETTEVILLE   CLEAR     55  52  88 NE7       30.02R
TULLAHOMA      CLEAR     46  45  93 CALM        N/A
WINCHESTER     CLEAR     52  48  87 CALM      30.04R
MCMINNVILLE    CLEAR     46  46 100 NE6       30.04S
COLUMBIA       CLEAR    N/A N/A N/A CALM      30.01R
SHELBYVILLE    CLEAR     52  52 100 CALM      30.04R
$$

TNZ017-018-042-046-047-291300-
NORTHEAST TENNESSEE

CITY           SKY/WX    TMP DP  RH WIND       PRES   REMARKS
TRI CITIES     PTCLDY    48  46  93 CALM      30.08R
ELIZABETHTON   CLEAR     46  46 100 CALM      30.07S
$$

TNZ012-013-036-069-073-074-291300-
CENTRAL EAST TENNESSEE

CITY           SKY/WX    TMP DP  RH WIND       PRES   REMARKS
KNOXVILLE      CLEAR     51  48  89 CALM      30.05R
OAK RIDGE      CLEAR     50  47  89 CALM      30.08R
DOWNTOWN KNOXV FOG       48  48 100 CALM      30.07R VSB 1/4
GATLINBURG     CLEAR     45  45 100 CALM      30.06R
MORRISTOWN     CLEAR     54  50  87 NE6       30.06R
JACKSBORO      FOG       45  45 100 CALM      30.10R VSB 1
$$

TNZ083-085-099-291300-
SOUTHEAST TENNESSEE

CITY           SKY/WX    TMP DP  RH WIND       PRES   REMARKS
CHATTANOOGA    PTCLDY    51  48  89 CALM      30.06R
$$

SKY/WX REPORTED AS FAIR MEANS FEW OR NO CLOUDS BELOW
12 THOUSAND FEET.





USA.gov is the U.S. government's official web portal to all federal, state and local government web resources and services.